Location: Herm
(49.4830°N, 2.4500°W)
Time: 12:12:59
(UTC+00:00)

N. Korean satellite - Visible Passes

Search period start: 19 February 2018 00:00
Search period end: 01 March 2018 00:00
Orbit: 459 x 514 km, 97.2° (Epoch: 18 February)

Date Brightness Start Highest point End Pass type
(mag) Time Alt. Az. Time Alt. Az. Time Alt. Az.
19 Feb 9.6 06:07:15 10° NE 06:10:06 21° E 06:12:59 10° SE visible
19 Feb 8.0 18:20:31 10° S 18:23:48 42° W 18:27:09 10° NNW visible
20 Feb 10.4 05:44:37 10° ENE 05:46:10 12° E 05:47:43 10° ESE visible
21 Feb 10.1 19:08:23 10° WSW 19:10:08 13° W 19:11:54 10° WNW visible
22 Feb 8.5 06:29:04 10° NNE 06:32:31 37° E 06:35:58 10° SSE visible
22 Feb 9.3 18:43:19 10° SSW 18:46:10 24° W 18:49:04 10° NW visible
23 Feb 9.7 06:05:46 10° NE 06:08:38 21° E 06:11:30 10° SE visible
23 Feb 7.9 18:18:58 10° S 18:22:17 44° W 18:25:41 10° NNW visible
24 Feb 10.4 05:43:10 10° ENE 05:44:41 12° E 05:46:11 10° ESE visible
25 Feb 10.1 19:06:43 10° WSW 19:08:35 14° W 19:10:29 10° WNW visible
26 Feb 9.2 18:41:43 10° SSW 18:44:37 25° W 18:47:35 10° NW visible
27 Feb 9.8 06:04:15 10° NE 06:07:06 21° E 06:09:58 10° SE visible
27 Feb 7.9 18:17:22 10° S 18:20:44 46° W 18:24:10 10° NNW visible
28 Feb 10.5 05:41:40 10° ENE 05:43:08 12° E 05:44:35 10° ESE visible
